Regional Weather Roundup
Issued by NWS Albany, NY

Home | Current Version | Previous Version | Text Only | Print | Product List | Glossary On
Versions: 1 2 3 4 5 6 7 8 9 10 11 12 13 14 15 16 17 18 19 20 21 22 23 24 25 26 27 28 29 30 31 32 33 34 35 36 37 38 39 40 41 42 43 44 45 46 47 48 49 50
000
ASUS41 KALY 020110
RWRALY

NEW YORK STATE HOURLY WEATHER ROUNDUP
NATIONAL WEATHER SERVICE ALBANY NY
900 PM EDT MON JUN 01 2015

NOTE: "FAIR" INDICATES FEW OR NO CLOUDS BELOW 12,000 FEET WITH NO
SIGNIFICANT WEATHER AND/OR NO OBSTRUCTIONS TO VISIBILITY.

NYZ032-033-038>043-046>054-057>066-NYZ062>081-020200-
EAST


CITY           SKY/WX    TMP DP  RH WIND       PRES   REMARKS
ALBANY         DRIZZLE   53  48  83 CALM      30.19R
GLENS FALLS    CLOUDY    50  47  89 N9        30.20R
POUGHKEEPSIE   RAIN      52  49  89 NE8       30.17R FOG
NEWBURGH       LGT RAIN  50  50 100 E12       30.17  FOG
MONTGOMERY     LGT RAIN  52  51  97 NE9       30.16R
WHITE PLAINS   LGT RAIN  50  49  96 NE10G17   30.14R FOG
ISLIP          DRIZZLE   51  49  92 NE14      30.12R FOG
NEW YORK CITY  DRIZZLE   54  52  93 NE17      30.14R FOG
CENTRAL PARK   CLOUDY    54  51  90 E17       30.16R FOG
$$

NYZ005>009-017-018-044>046-055-056-020200-
CENTRAL


CITY           SKY/WX    TMP DP  RH WIND       PRES   REMARKS
FULTON         CLOUDY    54  50  86 E3        30.16R
SYRACUSE       DRIZZLE   52  52 100 NE7       30.15R FOG
ROME           CLOUDY    51  50  96 E7        30.17R FOG
ELMIRA         CLOUDY    55  51  86 CALM      30.14R
BINGHAMTON     CLOUDY    52  52 100 NW6       30.11S FOG
MONTICELLO     CLOUDY    48  46  93 E9        30.15S
$$

NYZ026>034-041>043-020200-
NORTH


CITY           SKY/WX    TMP DP  RH WIND       PRES   REMARKS
WATERTOWN      CLOUDY    53  52  96 NE8       30.16S FOG
FORT DRUM      NOT AVBL
MASSENA        CLOUDY    53  47  79 E10       30.22S
SARANAC LAKE   CLOUDY    47  46  97 NE7       30.18R
PLATTSBURGH    LGT RAIN  51  50  96 CALM      30.23S FOG
$$

NYZ001>004-010>016-019>021-020200-
WEST


CITY           SKY/WX    TMP DP  RH WIND       PRES   REMARKS
NIAGARA FALLS  CLOUDY    54  48  80 NE5       30.18S
BUFFALO        CLOUDY    53  49  86 NE6       30.18F
DUNKIRK        CLOUDY    53  49  86 NE7       30.18R
JAMESTOWN      CLOUDY    48  45  87 NE8       30.17R
WELLSVILLE     CLOUDY    49  46  90 N5        30.16S
ROCHESTER      LGT RAIN  52  50  93 NE10      30.19R FOG
PENN YAN       CLOUDY    53  50  89 NW6       30.15S
$$

             KEY
       WCI = WIND CHILL INDEX
       VSB = VISIBILITY
       HX  = HEAT INDEX
$$



USA.gov is the U.S. government's official web portal to all federal, state and local government web resources and services.